TimeEST,TemperatureF,Dew PointF,Humidity,Sea Level PressureIn,VisibilityMPH,Wind Direction,Wind SpeedMPH,Gust SpeedMPH,PrecipitationIn,Events,Conditions,WindDirDegrees,DateUTC
12:56 AM,48.9,46.0,90,30.11,10.0,ENE,3.5,-,N/A,,Overcast,70,2013-01-03 05:56:00
1:56 AM,48.0,45.0,89,30.12,10.0,SE,3.5,-,N/A,,Overcast,130,2013-01-03 06:56:00
2:56 AM,48.0,46.0,93,30.14,10.0,Calm,Calm,-,0.00,,Overcast,0,2013-01-03 07:56:00
3:56 AM,46.9,46.0,97,30.13,2.5,NE,4.6,-,0.00,,Overcast,50,2013-01-03 08:56:00
4:16 AM,46.4,44.6,93,30.14,3.0,North,5.8,-,0.01,,Overcast,10,2013-01-03 09:16:00
4:56 AM,46.0,45.0,96,30.12,4.0,East,5.8,-,0.01,,Overcast,90,2013-01-03 09:56:00
5:56 AM,46.0,45.0,96,30.14,4.0,Variable,3.5,-,N/A,,Overcast,0,2013-01-03 10:56:00
6:40 AM,46.4,44.6,93,30.14,3.0,SE,3.5,-,N/A,,Overcast,130,2013-01-03 11:40:00
6:51 AM,46.4,44.6,93,30.15,2.0,Calm,Calm,-,N/A,,Overcast,0,2013-01-03 11:51:00
6:56 AM,46.0,46.0,100,30.14,2.0,ESE,3.5,-,N/A,,Overcast,120,2013-01-03 11:56:00
7:03 AM,46.4,44.6,93,30.14,1.5,Calm,Calm,-,N/A,,Overcast,0,2013-01-03 12:03:00
7:37 AM,46.4,44.6,93,30.15,0.8,Calm,Calm,-,N/A,,Overcast,0,2013-01-03 12:37:00
8:10 AM,46.4,46.4,100,30.16,0.2,Calm,Calm,-,N/A,Fog,Fog,0,2013-01-03 13:10:00
8:28 AM,46.4,46.4,100,30.15,0.8,Calm,Calm,-,N/A,,Overcast,0,2013-01-03 13:28:00
8:56 AM,46.0,46.0,100,30.17,0.8,North,3.5,-,N/A,,Overcast,10,2013-01-03 13:56:00
9:06 AM,46.4,44.6,93,30.17,1.0,NNE,3.5,-,N/A,,Overcast,30,2013-01-03 14:06:00
9:53 AM,46.4,44.6,93,30.18,2.0,NNE,4.6,-,N/A,,Overcast,20,2013-01-03 14:53:00
9:56 AM,46.0,46.0,100,30.18,1.0,NE,4.6,-,N/A,,Overcast,50,2013-01-03 14:56:00
10:23 AM,46.4,46.4,100,30.18,2.5,Calm,Calm,-,N/A,,Overcast,0,2013-01-03 15:23:00
10:31 AM,46.4,46.4,100,30.19,4.0,NNE,3.5,-,N/A,,Overcast,30,2013-01-03 15:31:00
10:48 AM,46.4,44.6,93,30.19,5.0,NNE,5.8,-,N/A,,Overcast,30,2013-01-03 15:48:00
10:56 AM,46.0,45.0,96,30.20,5.0,North,4.6,-,N/A,,Overcast,360,2013-01-03 15:56:00
11:08 AM,46.4,44.6,93,30.20,6.0,North,4.6,-,N/A,,Overcast,10,2013-01-03 16:08:00
11:18 AM,46.4,44.6,93,30.19,3.0,NNE,4.6,-,N/A,,Overcast,20,2013-01-03 16:18:00
11:25 AM,46.4,44.6,93,30.19,5.0,Calm,Calm,-,N/A,,Overcast,0,2013-01-03 16:25:00
11:56 AM,48.0,45.0,89,30.18,9.0,Calm,Calm,-,N/A,,Overcast,0,2013-01-03 16:56:00
12:05 PM,48.2,44.6,87,30.18,10.0,Calm,Calm,-,N/A,,Overcast,0,2013-01-03 17:05:00
12:37 PM,48.2,44.6,87,30.17,10.0,NNW,4.6,-,N/A,,Overcast,340,2013-01-03 17:37:00
12:48 PM,48.2,42.8,82,30.17,10.0,Calm,Calm,-,N/A,,Overcast,0,2013-01-03 17:48:00
12:56 PM,48.9,43.0,80,30.17,10.0,Calm,Calm,-,N/A,,Overcast,0,2013-01-03 17:56:00
1:56 PM,50.0,41.0,71,30.15,10.0,Calm,Calm,-,N/A,,Overcast,0,2013-01-03 18:56:00
2:56 PM,48.9,43.0,80,30.16,10.0,North,6.9,-,N/A,,Overcast,10,2013-01-03 19:56:00
3:09 PM,48.2,44.6,87,30.16,10.0,North,9.2,-,N/A,,Overcast,360,2013-01-03 20:09:00
3:35 PM,46.4,42.8,87,30.17,10.0,North,9.2,-,N/A,,Mostly Cloudy,360,2013-01-03 20:35:00
3:56 PM,46.9,43.0,86,30.19,10.0,North,8.1,-,N/A,,Overcast,360,2013-01-03 20:56:00
4:56 PM,46.0,42.1,86,30.21,10.0,NNE,5.8,-,N/A,,Overcast,20,2013-01-03 21:56:00
5:56 PM,45.0,42.1,90,30.22,10.0,North,3.5,-,N/A,,Overcast,10,2013-01-03 22:56:00
6:56 PM,44.1,41.0,89,30.26,10.0,NE,6.9,-,N/A,,Overcast,40,2013-01-03 23:56:00
7:56 PM,44.1,39.9,85,30.27,10.0,ENE,3.5,-,N/A,,Overcast,60,2013-01-04 00:56:00
8:56 PM,39.9,39.0,97,30.29,7.0,Calm,Calm,-,N/A,,Mostly Cloudy,0,2013-01-04 01:56:00
9:18 PM,41.0,39.2,93,30.28,6.0,Calm,Calm,-,N/A,,Mostly Cloudy,0,2013-01-04 02:18:00
9:56 PM,39.0,37.9,96,30.30,4.0,Calm,Calm,-,N/A,,Mostly Cloudy,0,2013-01-04 02:56:00
10:11 PM,37.4,37.4,100,30.29,2.5,Calm,Calm,-,N/A,,Partly Cloudy,0,2013-01-04 03:11:00
10:25 PM,37.4,35.6,93,30.29,0.8,Calm,Calm,-,N/A,,Clear,0,2013-01-04 03:25:00
10:39 PM,37.4,35.6,93,30.29,1.0,Calm,Calm,-,N/A,,Clear,0,2013-01-04 03:39:00
10:56 PM,35.1,34.0,96,30.30,0.8,Calm,Calm,-,N/A,,Clear,0,2013-01-04 03:56:00
11:05 PM,35.6,33.8,93,30.29,0.5,Calm,Calm,-,N/A,Fog,Fog,0,2013-01-04 04:05:00
11:18 PM,35.6,33.8,93,30.29,1.2,Calm,Calm,-,N/A,,Partly Cloudy,0,2013-01-04 04:18:00
11:27 PM,35.6,33.8,93,30.28,1.0,Calm,Calm,-,N/A,,Mist,0,2013-01-04 04:27:00
11:34 PM,33.8,33.8,100,30.29,0.5,Calm,Calm,-,N/A,Fog,Fog,0,2013-01-04 04:34:00
11:56 PM,33.1,32.0,96,30.31,0.8,Calm,Calm,-,N/A,,Mist,0,2013-01-04 04:56:00